[[{"header":{"parameterUnit":"m.s-1","parameterCategory":1,"la1":30.2991,"la2":30.254,"lo1":-89.0895,"lo2":-89.0444,"dy":0.0017,"dx":0.0017,"nx":28,"ny":28,"refTime":"2024-06-09T21:00:00:Z","depth":0,"parameterNumber":2,"parameterNumberName":"U-component_of_WINDS"},"data":[0,0,0,0,0,0,0,0,0,0,0,0,0,0,0,0,0,0,0,0,0,0,0,0,0,0,0,0,0,0,0,0,0,0,0,0,0,0,0,0,0,0,0,0,0,0,0,0,0,0,0,0,0,0,0,0,0,0,2.4439,2.444,0,2.4536,2.4537,2.4538,2.4513,2.4512,2.451,2.4508,2.4614,2.4618,2.4623,0,0,0,0,0,0,0,0,0,0,0,0,0,2.424,2.4243,2.4438,2.444,2.4441,2.4536,2.4537,2.4538,2.4514,2.4511,2.4509,2.4507,2.4612,2.4617,2.4623,0,0,0,0,0,0,0,0,0,0,0,0,0,2.4331,2.4245,2.4438,2.444,2.4441,2.4535,2.4537,2.4539,2.4514,2.4511,2.4508,2.4506,2.461,2.4617,2.4624,2.4724,0,0,2.4645,2.4648,0,0,0,0,0,0,0,0,2.4325,2.4338,2.4438,2.444,2.4441,2.4509,2.4506,2.4601,2.4515,2.4487,2.4508,2.4504,2.4582,2.4591,2.4616,2.4729,2.4734,2.4645,2.465,2.4653,2.4655,0,0,0,0,0,0,0,2.4319,2.4334,2.4477,2.444,2.4442,2.4439,2.4448,2.4524,2.4549,2.4489,2.4487,2.4499,2.4582,2.4609,2.4618,2.4735,2.4645,2.4651,2.4656,2.4658,2.4943,2.4947,0,0,0,0,0,0,2.4311,2.4329,2.4474,2.448,2.4375,2.4445,2.4455,2.4491,2.4548,2.4554,2.4501,2.4497,2.4598,2.461,2.4621,2.4748,2.4653,2.4659,2.4663,2.494,2.4944,2.4948,0,0,0,0,0,0,2.4307,2.4324,2.447,2.4404,2.4422,2.4451,2.4491,2.4494,2.4521,2.4558,2.4563,2.4524,2.4597,2.4612,2.47,2.4751,2.4662,2.4668,2.4936,2.4941,2.4946,2.4998,0,0,0,0,0,0,2.4301,2.4322,2.4359,2.4405,2.4426,2.4545,2.4494,2.4498,2.4532,2.4528,2.458,2.4586,2.4596,2.469,2.4707,2.4759,2.4674,2.4932,2.4938,2.4944,2.4992,2.5004,2.5015,0,0,0,0,0,2.4294,2.4369,2.4361,2.4378,2.4471,2.4547,2.456,2.4567,2.4536,2.4575,2.4599,2.4584,2.4742,2.4699,2.4718,2.4773,2.4928,2.4936,2.4944,2.4987,2.5002,2.5015,0,0,0,0,0,0,2.4329,2.4375,2.4366,2.4458,2.4499,2.4543,2.4592,2.4582,2.4634,2.4628,2.4638,2.465,2.4741,2.4765,2.4717,2.4876,2.4831,2.4843,2.4857,2.4872,2.4883,2.4877,2.468,0,0,0,0,0,2.4348,2.4403,2.4441,2.4519,2.454,2.4562,2.4596,2.4598,2.4642,2.4659,2.469,2.4735,2.4795,2.4834,2.4891,2.4995,2.5009,2.5042,2.5054,2.5063,2.5074,2.5137,2.5154,2.4973,2.4973,2.4973,0,0,2.4387,2.4419,2.4453,2.4527,2.4559,2.462,2.4577,2.4642,2.4688,2.467,2.4756,2.478,2.4831,2.4929,2.4973,2.4952,2.5127,2.5073,2.508,2.5086,2.5146,2.5164,2.5179,2.4978,2.4977,2.4976,0,0,2.449,2.4517,2.4588,2.4621,2.467,2.4685,2.4702,2.4748,2.4764,2.4849,2.4839,2.4895,2.4997,2.5035,2.5068,2.519,2.518,2.5208,2.5269,2.533,2.5345,2.5357,2.5406,2.5423,2.5219,2.5219,2.5219,0,2.4533,2.4621,2.4626,2.4693,2.4728,2.4713,2.4788,2.482,2.4886,2.4912,2.4886,2.5017,2.505,2.5159,2.5189,2.5214,2.5238,2.5203,2.5341,2.5354,2.5367,2.5413,2.5431,2.5222,2.5222,2.5221,2.5221,0,2.4675,2.4737,2.4788,2.4852,2.4893,2.4963,2.4982,2.5023,2.5023,2.5042,2.5133,2.5172,2.5239,2.5264,2.5264,2.5376,2.5362,2.5338,2.5294,2.5387,2.5431,2.5449,2.5227,2.5226,2.5225,2.5224,0,0,2.4803,2.487,2.4889,2.492,2.4975,2.5024,2.5096,2.516,2.5198,2.5244,2.5308,2.5396,2.5377,2.5414,2.5419,2.5472,2.5573,2.5443,2.5445,2.547,2.5704,2.5724,2.5744,2.5565,2.5569,2.5571,2.5702,0,2.4915,2.5039,2.5047,2.5161,2.5222,2.521,2.5273,2.5316,2.5336,2.5393,2.5416,2.548,2.5447,2.547,2.5522,2.555,2.5621,2.554,2.563,2.5633,2.5621,2.5767,2.5787,2.5908,2.5718,2.5721,2.5723,0,2.5061,2.5113,2.5233,2.5283,2.5309,2.5365,2.5428,2.548,2.553,2.5542,2.5585,2.5584,2.5662,2.5612,2.5723,2.5668,2.5705,2.5725,2.573,2.5742,2.5686,2.5787,2.5946,2.5966,2.575,2.5747,2.5746,0,2.5149,2.5248,2.5334,2.5361,2.542,2.5461,2.5488,2.5534,2.5574,2.5629,2.5656,2.572,2.5756,2.5807,2.5825,2.5786,2.5937,2.5887,2.5953,2.5953,2.5988,2.5987,2.616,2.6005,2.6005,2.6004,2.6004,0,2.5275,2.5351,2.5375,2.5429,2.5515,2.5524,2.561,2.5635,2.5677,2.5738,2.5731,2.5789,2.5807,2.5869,2.5883,2.5976,2.5991,2.6006,2.601,2.6009,2.6008,2.6037,2.6031,2.6009,2.6008,2.6007,2.6006,0,2.5389,2.5408,2.5502,2.5551,2.5565,2.5627,2.567,2.5724,2.5744,2.5822,2.5841,2.5873,2.5946,2.5968,2.6056,2.6066,2.6177,2.617,2.616,2.6161,2.6228,2.6223,2.6429,2.6459,2.628,2.6282,2.6283,0,2.5471,2.5529,2.5584,2.5624,2.5653,2.5717,2.5758,2.577,2.5814,2.5877,2.5925,2.5997,2.6056,2.6175,2.6208,2.6277,2.6275,2.6343,2.6286,2.6285,2.6283,2.6281,2.6289,2.6355,2.6357,2.6358,2.6359,0,2.5615,2.5622,2.568,2.5744,2.5793,2.5844,2.5892,2.5926,2.5946,2.5997,2.6071,2.6117,2.6208,2.6282,2.6353,2.6384,2.6378,2.6377,2.6397,2.6399,2.6393,2.6402,2.6194,2.6373,2.6371,2.637,2.637,2.6369,2.5719,2.5772,2.582,2.5887,2.5925,2.5972,2.6026,2.6053,2.6115,2.619,2.6193,2.6276,2.6329,2.6423,2.6458,2.6525,2.6506,2.6533,2.6541,2.6549,2.6557,2.6378,2.6538,2.6537,2.6537,2.6537,2.6536,0,2.5867,2.5898,2.5959,2.6028,2.6083,2.6068,2.6123,2.617,2.6242,2.6291,2.6349,2.6438,2.6511,2.655,2.6623,2.667,2.667,2.669,2.6689,2.6697,2.6567,2.6545,2.6689,2.6689,2.6689,2.6689,2.6689,2.6689,2.5951,2.6042,2.6056,2.6167,2.6198,2.6278,2.6311,2.6356,2.6395,2.6494,2.6554,2.6578,2.6626,2.6703,2.677,2.678,2.681,2.6833,2.6842,2.6721,2.6705,2.6691,2.667,2.6838,2.6838,2.6967,2.6968,2.6969]},{"header":{"parameterUnit":"m.s-1","parameterCategory":1,"la1":30.2991,"la2":30.254,"lo1":-89.0895,"lo2":-89.0444,"dy":0.0017,"dx":0.0017,"nx":28,"ny":28,"refTime":"2024-06-09T21:00:00:Z","depth":0,"parameterNumber":3,"parameterNumberName":"V-component_of_WINDS"},"data":[0,0,0,0,0,0,0,0,0,0,0,0,0,0,0,0,0,0,0,0,0,0,0,0,0,0,0,0,0,0,0,0,0,0,0,0,0,0,0,0,0,0,0,0,0,0,0,0,0,0,0,0,0,0,0,0,0,0,0.2373,0.2374,0,0.2476,0.2477,0.2478,0.2475,0.2473,0.2472,0.2471,0.2574,0.2578,0.2582,0,0,0,0,0,0,0,0,0,0,0,0,0,0.217,0.2173,0.2373,0.2374,0.2376,0.2476,0.2477,0.2478,0.2475,0.2473,0.2472,0.247,0.2573,0.2578,0.2583,0,0,0,0,0,0,0,0,0,0,0,0,0,0.2264,0.2175,0.2373,0.2386,0.2388,0.2475,0.2477,0.2479,0.2476,0.2473,0.2471,0.2469,0.2571,0.2577,0.2583,0.2663,0,0,0.2602,0.2605,0,0,0,0,0,0,0,0,0.2258,0.2271,0.2383,0.2385,0.2388,0.246,0.2443,0.2541,0.2476,0.2442,0.2471,0.2468,0.2538,0.2547,0.2571,0.2668,0.2673,0.2603,0.2606,0.2609,0.2611,0,0,0,0,0,0,0,0.2252,0.2267,0.2414,0.2384,0.2388,0.2385,0.2396,0.2462,0.2501,0.2445,0.2445,0.2457,0.2539,0.2565,0.2573,0.2674,0.2602,0.2608,0.2612,0.2614,0.2837,0.2839,0,0,0,0,0,0,0.2243,0.2261,0.241,0.2417,0.2317,0.2391,0.2403,0.2439,0.25,0.2507,0.2459,0.2457,0.2555,0.2566,0.2577,0.2671,0.2609,0.2615,0.2618,0.2835,0.2837,0.284,0,0,0,0,0,0,0.2239,0.2256,0.2406,0.2339,0.2358,0.2397,0.2437,0.2442,0.2468,0.2511,0.2517,0.2479,0.2554,0.2568,0.2641,0.2674,0.2617,0.2623,0.2832,0.2836,0.2839,0.2862,0,0,0,0,0,0,0.2233,0.2255,0.2287,0.234,0.2362,0.247,0.2439,0.2446,0.2479,0.2477,0.2531,0.2537,0.2553,0.2632,0.2647,0.2682,0.2628,0.2829,0.2834,0.2838,0.2858,0.2865,0.2872,0,0,0,0,0,0.2226,0.229,0.2289,0.2307,0.2403,0.2472,0.2485,0.2502,0.2482,0.2513,0.2539,0.2536,0.2668,0.2639,0.2656,0.2693,0.2827,0.2832,0.2837,0.2855,0.2864,0.2872,0,0,0,0,0,0,0.2241,0.2298,0.2297,0.2381,0.2421,0.2472,0.2512,0.2512,0.2559,0.2556,0.2575,0.2587,0.2658,0.2684,0.265,0.2771,0.2745,0.2754,0.2752,0.2761,0.2768,0.276,0.2633,0,0,0,0,0,0.2254,0.2307,0.2353,0.2423,0.2443,0.2474,0.2505,0.2515,0.2558,0.2575,0.2607,0.2648,0.2698,0.2732,0.2781,0.2862,0.2871,0.2895,0.2902,0.2907,0.2914,0.2954,0.2964,0.2857,0.2857,0.2856,0,0,0.2282,0.2319,0.2352,0.2426,0.2459,0.2511,0.2489,0.2546,0.2584,0.2584,0.2653,0.2678,0.2725,0.28,0.2836,0.2823,0.2946,0.2914,0.2918,0.2922,0.296,0.2971,0.298,0.286,0.2859,0.2859,0,0,0.2359,0.2394,0.2453,0.2486,0.2536,0.2555,0.2569,0.2619,0.2635,0.2705,0.2704,0.2749,0.2837,0.2869,0.2897,0.298,0.2977,0.2996,0.3031,0.307,0.3078,0.3086,0.3112,0.3122,0.3003,0.3003,0.3003,0,0.2387,0.2467,0.2484,0.254,0.2571,0.2573,0.2631,0.2662,0.2725,0.2745,0.2731,0.2838,0.287,0.2951,0.2971,0.2995,0.3009,0.299,0.3076,0.3083,0.3091,0.3116,0.3126,0.3005,0.3004,0.3004,0.3004,0,0.2497,0.2551,0.2593,0.2653,0.2689,0.2746,0.277,0.2804,0.2809,0.2829,0.2898,0.2936,0.2991,0.3011,0.3018,0.3092,0.3082,0.3072,0.3045,0.3102,0.3126,0.3136,0.3007,0.3006,0.3006,0.3005,0,0,0.2588,0.2654,0.2668,0.2693,0.2746,0.2788,0.2843,0.2897,0.2923,0.2966,0.3011,0.3083,0.3072,0.3103,0.3113,0.3148,0.3206,0.3132,0.3133,0.3142,0.3285,0.3291,0.3303,0.3205,0.3207,0.3208,0.328,0,0.2668,0.2767,0.2782,0.2869,0.2917,0.2917,0.2964,0.3001,0.302,0.3062,0.3084,0.3133,0.3117,0.3135,0.3169,0.3192,0.3235,0.3187,0.3244,0.3246,0.323,0.3316,0.3323,0.339,0.329,0.3292,0.3293,0,0.2775,0.2818,0.2909,0.2951,0.2972,0.3015,0.3062,0.3104,0.3143,0.3155,0.3187,0.3192,0.3246,0.3218,0.3291,0.3258,0.3282,0.3297,0.33,0.3304,0.3272,0.332,0.3412,0.3421,0.3309,0.3307,0.3306,0,0.2828,0.2909,0.2973,0.2995,0.3047,0.3076,0.3099,0.3136,0.3165,0.3206,0.3225,0.3272,0.3297,0.3332,0.3348,0.3327,0.3419,0.3393,0.3427,0.3427,0.3446,0.3444,0.354,0.3465,0.3465,0.3465,0.3465,0,0.2914,0.2969,0.2997,0.3036,0.3096,0.3112,0.317,0.3192,0.3224,0.3266,0.3269,0.3307,0.3327,0.3367,0.338,0.3436,0.3449,0.3457,0.3459,0.3456,0.3454,0.347,0.3465,0.3468,0.3467,0.3466,0.3466,0,0.2984,0.3005,0.3074,0.3116,0.3127,0.3169,0.3204,0.3241,0.3259,0.331,0.3323,0.3351,0.3399,0.3418,0.3477,0.3485,0.3548,0.3549,0.3535,0.3535,0.3567,0.3563,0.3676,0.369,0.3607,0.3608,0.3609,0,0.3036,0.3078,0.3124,0.3151,0.3174,0.322,0.3249,0.3265,0.3295,0.334,0.337,0.3417,0.3456,0.3531,0.3555,0.3599,0.3598,0.3635,0.3605,0.3598,0.3595,0.3591,0.3594,0.364,0.364,0.3641,0.3642,0,0.3126,0.3134,0.3176,0.3221,0.3256,0.3292,0.3327,0.3349,0.337,0.3403,0.3451,0.3481,0.3539,0.3584,0.3629,0.365,0.3648,0.3651,0.366,0.3656,0.3645,0.3648,0.3547,0.3648,0.3647,0.3647,0.3647,0.3646,0.3187,0.3222,0.3259,0.3305,0.3332,0.3364,0.3399,0.342,0.3461,0.3509,0.3516,0.3566,0.36,0.3659,0.3682,0.372,0.371,0.3725,0.3729,0.3731,0.3732,0.364,0.3728,0.3728,0.3728,0.3728,0.3728,0,0.3275,0.3297,0.3339,0.3387,0.3422,0.3418,0.3455,0.3484,0.3529,0.3561,0.3598,0.3651,0.3694,0.372,0.3763,0.3788,0.3788,0.3798,0.3795,0.3799,0.374,0.3726,0.3797,0.3797,0.3797,0.3797,0.3797,0.3797,0.3324,0.3382,0.3393,0.3464,0.3486,0.3535,0.3556,0.3584,0.361,0.3668,0.3704,0.3721,0.3749,0.3793,0.3832,0.3838,0.3852,0.3863,0.3868,0.3811,0.3804,0.3797,0.3784,0.3867,0.3867,0.3924,0.3925,0.3925]}]]